sat.trackr.live / text

‹ back to catalog

SITRO-AIS-59

NORAD 67257 · 2025-313K

PAYLOAD ACTIVE UNKNOWN

§ Identity

Operator
Country
CIS
Launch date
2025-12-28
Launch site
VOSTO
Launch vehicle
Mass (kg)
RCS (m²)

External: N2YO · Heavens-Above · Gunter

§ Orbital elements

Epoch: 2026-05-25T03:39:34.105248Z

Period
94.57 min
Inclination
97.3937°
Eccentricity
0.0017070
Mean motion
15.22618502 rev/d
Perigee alt
486.2 km
Apogee alt
509.7 km
Semi-major
6,876.1 km
B*
3.7601e-4
RAAN
220.1100°
Arg perigee
87.7034°
Mean anomaly
272.6156°
Rev number
2,244

§ Raw data

SITRO-AIS-591 67257U 25313K   26145.15247807  .00008710  00000+0  37601-3 0  99982 67257  97.3937 220.1100 0017070  87.7034 272.6156 15.22618502 22440

JSON: /api/v1/satellites/67257 · /tle

For live sub-satellite position, see the globe view (requires WebGL).

§ Visibility from observer

Set your observer location to see the next 7 days of passes ≥ 10°. The values pass through the URL so the page stays shareable.

No JS? Fill the form by hand. The geolocation button needs JavaScript.